Showing default

MIRATA, 43015

Orbit data source: Space-Track

MIRATA, 43015 is an American payload satellite in SSO that was launched on Sat, 18 Nov 2017 UTC via a DELTA 7920-10C launch vehicle from the Air Force Western Test Range (AFWTR). Payload-class satellites include a variety of spacecraft equipped with specific instruments for various scientific and technological missions. These include communications satellites like Starlink; space stations such as the ISS; scientific satellites like the Hubble; Earth observation satellites from companies like Planet Labs, Umbra, and HawkEye 360; GPS; miniature CubeSats for education and research; and military/defense satellites.

Not visible in the next 10 days
Identifier
43015, 2017-073C
Orbit
SSO
Country
Flag of USUS
Related business
Manufacturer
MIT
Mission
Operational Amateur Technology
Bus & Motor
CUBESAT 3U, Unknown motor
Mass
4 kg wet, 4 kg dry
Launch date (UTC)
2017-11-18 (8 years ago)
Launch vehicle
DELTA 7920-10C
Launch site
Air Force Western Test Range (AFWTR)
Object type
Payload
Rocket body
Debris
Shape & HBR
Box + 2 Pan, 0.1 m
Radar Cross Section
0.035 m², Small (<0.1 m²)

Expand to show TLE details & history
Last TLE update: 18 hours ago

TLE from 18 hours ago
0 MIRATA
1 43015U 17073C   25288.46001654  .00891728  35774-3  22134-2 0  9990
2 43015  97.5043 191.2715 0016293 341.9886  18.0810 15.95692929430764
Epoch: 2025-10-15T11:02Z
TLE epoch observation values (Epoch: 2025-10-15T11:02:25.429Z)
Latitude
-0.00001°
Longitude
1.43177°
Altitude
279.251 km
Speed
7.746 km/s
True Right ascension
12h 45m 05s
True Declination
0° 00' 00"
Sunlit
Object was in daylight at epoch
Visualization orbit readout
Latitude
Unknown
Longitude
Unknown
Altitude
Unknown
Speed
Unknown
Apparent Right ascension
Unknown
Apparent Declination
Unknown
Sunlit
N/A
Visualization observer readout
Local Sidereal Time
00:02:13
Azimuth
Unknown
Elevation
Unknown
Doppler factor
Unknown
Orbital elements
Apogee altitude
294.108 km
Perigee altitude
272.401 km
Semi-major axis
6,661.391 km
Eccentricity
0.00163
Inclination
97.5043°
RAAN
191.2715°
Arg. of periapsis
341.9886°
True anomaly
18.13906°
Mean anomaly
18.081°
Eccentric anomaly
18.11002°
Mean motion
3.99205 °/min
Orbital period
90.18 mins
BSTAR
0.0022134
Loading maneuver chart data...
Computing Atmospheric mass density...
Loading historical data...
Loading historical data...
Loading historical data...
Loading historical data...
Loading historical data...
Loading historical data...
Loading historical data...
Other satellites on launch #73 in the year 2017 (2017-11-18 UTC)

Documentation

Showing up to 5 results
|